WB8ZTP Weather Reports


Display with metric or nautical units.
time (UTC)temp
F
wind
direction
speed
MPH
gust
MPH
rain 1hr
in
rain 24hr
in
rain mn
in
humidity
%
barometer
mb
20260505124502 60 226 3.0 7.0 0.00 0.00 0.00 81 1009.5
20260505123106 60 190 3.0 7.0 0.00 0.00 0.00 81 1009.0
20260505121556 60 160 1.0 7.0 0.00 0.00 0.00 79 1008.9
20260505120055 60 176 3.0 7.0 0.00 0.00 0.00 78 1008.8
20260505114554 60 193 1.0 6.0 0.00 0.00 0.00 77 1008.9
20260505113058 61 170 1.0 6.0 0.00 0.00 0.00 76 1008.8
20260505111556 61 184 3.0 5.0 0.00 0.00 0.00 76 1008.9
20260505101547 62 246 3.0 10.0 0.00 0.00 0.00 71 1008.9
20260505100051 62 179 4.0 10.0 0.00 0.00 0.00 69 1008.9
20260505094544 63 207 5.0 11.0 0.00 0.00 0.00 68 1008.8
20260505093043 63 236 5.0 11.0 0.00 0.00 0.00 67 1008.5
20260505091554 64 238 5.0 14.0 0.00 0.00 0.00 66 1008.5
20260505090052 64 254 6.0 13.0 0.00 0.00 0.00 65 1008.4
20260505084539 65 204 8.0 16.0 0.00 0.00 0.00 64 1008.1
20260505083044 65 233 6.0 15.0 0.00 0.00 0.00 64 1007.9
20260505081552 65 192 6.0 17.0 0.00 0.00 0.00 63 1007.7
20260505080042 65 205 4.0 13.0 0.00 0.00 0.00 64 1007.6
20260505074545 65 204 3.0 17.0 0.00 0.00 0.00 63 1007.6
20260505073034 65 184 3.0 10.0 0.00 0.00 0.00 63 1007.5
20260505071534 65 234 3.0 10.0 0.00 0.00 0.00 64 1007.4
20260505070033 65 200 4.0 9.0 0.00 0.00 0.00 65 1007.4
20260505064533 64 207 4.0 9.0 0.00 0.00 0.00 66 1007.3
20260505063035 64 180 3.0 9.0 0.00 0.00 0.00 67 1007.4
20260505061533 65 219 2.0 10.0 0.00 0.00 0.00 67 1007.5
20260505060026 64 180 3.0 7.0 0.00 0.00 0.00 68 1007.7
20260505054528 64 150 4.0 10.0 0.00 0.00 0.00 68 1007.9
20260505053021 64 187 2.0 6.0 0.00 0.00 0.00 69 1008.0
20260505051520 63 186 2.0 7.0 0.00 0.00 0.00 71 1008.2
20260505041510 62 173 0.0 3.0 0.00 0.00 0.00 78 1008.2
20260505040009 61 153 1.0 5.0 0.00 0.00 0.00 78 1008.3
20260505034507 61 140 0.0 4.0 0.00 0.00 0.00 79 1008.2
20260505033013 61 152 0.0 3.0 0.00 0.00 0.00 78 1008.2
20260505031507 62 144 0.0 4.0 0.00 0.00 0.00 77 1008.2
20260505030007 62 154 0.0 3.0 0.00 0.00 0.00 77 1008.1
20260505024518 62 170 0.0 5.0 0.00 0.00 0.00 76 1008.1
20260505023006 62 149 0.0 4.0 0.00 0.00 0.00 76 1008.2
20260505021516 62 139 0.0 5.0 0.00 0.00 0.00 75 1008.1
20260505020005 62 148 0.0 3.0 0.00 0.00 0.00 76 1008.1
20260505014504 62 141 0.0 1.0 0.00 0.00 0.00 75 1008.0
20260505013004 63 155 0.0 3.0 0.00 0.00 0.00 74 1007.9
20260505011504 63 151 0.0 2.0 0.00 0.00 0.00 73 1007.8
20260505010004 65 151 0.0 1.0 0.00 0.00 0.00 71 1007.8
20260505004506 65 152 0.0 3.0 0.00 0.00 0.00 69 1007.8
20260505003002 66 178 0.0 6.0 0.00 0.00 0.00 67 1007.8
20260505001502 67 219 1.0 5.0 0.00 0.00 0.00 65 1007.7
20260505000001 67 131 2.0 6.0 0.00 0.00 0.00 65 1007.8
20260504234600 67 151 1.0 5.0 0.00 0.00 0.00 65 1007.8
20260504233102 68 178 0.0 5.0 0.00 0.00 0.00 64 1007.9
20260504231557 68 163 2.0 10.0 0.00 0.00 0.00 62 1008.0
20260504230056 69 189 1.0 7.0 0.00 0.00 0.00 62 1008.4
20260504224554 68 219 2.0 8.0 0.00 0.00 0.00 62 1008.7
20260504223059 68 186 3.0 12.0 0.00 0.00 0.00 62 1008.7
20260504221604 68 215 9.0 16.0 0.00 0.00 0.00 60 1008.6
20260504220118 69 191 5.0 16.0 0.00 0.00 0.00 60 1008.8
20260504214552 69 213 5.0 14.0 0.00 0.00 0.00 59 1008.9
20260504213103 68 201 4.0 8.0 0.00 0.00 0.00 63 1008.5
20260504211551 67 193 1.0 7.0 0.00 0.00 0.00 64 1008.5
20260504210048 68 219 6.0 17.0 0.00 0.00 0.00 63 1009.0
20260504204600 68 181 8.0 18.0 0.00 0.00 0.00 61 1009.2
20260504203046 69 177 8.0 23.0 0.00 0.00 0.00 59 1009.5
20260504201547 72 197 5.0 19.0 0.00 0.00 0.00 58 1009.6
20260504200047 71 174 6.0 17.0 0.00 0.00 0.00 57 1009.3
20260504194545 71 211 8.0 19.0 0.00 0.00 0.00 57 1009.6
20260504193042 71 185 8.0 16.0 0.00 0.00 0.00 56 1009.3
20260504191542 70 200 4.0 16.0 0.00 0.00 0.00 61 1009.4
20260504190040 70 185 5.0 15.0 0.00 0.00 0.00 58 1009.3
20260504184537 70 219 7.0 20.0 0.00 0.00 0.00 57 1009.6
20260504183034 69 220 6.0 15.0 0.00 0.00 0.00 59 1009.6
20260504181532 69 223 7.0 14.0 0.00 0.00 0.00 59 1009.7
20260504180029 68 252 7.0 17.0 0.00 0.00 0.00 59 1009.9
20260504174526 68 234 7.0 14.0 0.00 0.00 0.00 60 1010.0
20260504173024 67 180 7.0 14.0 0.00 0.00 0.00 62 1010.1
20260504171521 66 229 7.0 18.0 0.00 0.00 0.00 63 1010.2
20260504150104 61 194 6.0 15.0 0.00 0.00 0.00 66 1011.4